Regional Weather Roundup
Issued by NWS

Home | Current Version | Previous Version | Graphics & Text | Print | Product List | Glossary On
Versions: 1 2 3 4 5 6 7 8 9 10 11 12 13 14 15 16 17 18 19 20 21 22 23 24 25 26 27 28 29 30 31 32 33 34 35 36 37 38 39 40 41 42 43 44 45 46 47 48 49 50
000
ASUS45 KCYS 260210
RWRWY

WYOMING REGIONAL WEATHER ROUNDUP
NATIONAL WEATHER SERVICE CHEYENNE WY
800 PM MDT TUE APR 25 2017

NOTE:  "FAIR" INDICATES FEW OR NO CLOUDS BELOW 12,000 FEET
WITH NO SIGNIFICANT WEATHER AND/OR OBSTRUCTIONS TO VISIBILITY.

WYZ001-260300-
YELLOWSTONE NATIONAL PARK

CITY           SKY/WX    TMP DP  RH WIND       PRES   REMARKS
LK YELLOWSTONE   N/A     32  28  85 CALM      29.85S
W YELLOWSTONE  NOT AVBL

$$
WYZ002>013-054>058-071-098>099-260300-
NORTHERN WYOMING

CITY           SKY/WX    TMP DP  RH WIND       PRES   REMARKS
JACKSON        MOCLDY    37  36  93 CALM      29.84R
CODY           FAIR      37  31  78 N6        29.83R WCI  32
GREYBULL       FAIR      45  28  51 NW10      29.79R
WORLAND        FAIR      45  35  68 N7        29.79R
SHERIDAN       CLOUDY    33  29  85 CALM      29.88R
BUFFALO        NOT AVBL
GILLETTE       MOCLDY    27  27 100 N7        29.87R WCI  19
HULETT         CLOUDY    28  25  86 NE5       29.88R WCI  23
NEWCASTLE      LGT SNOW  28  27  93 N20       29.82R WCI  15

$$
WYZ014>020-022>026-101>103-260300-
CENTRAL WYOMING

CITY           SKY/WX    TMP DP  RH WIND       PRES   REMARKS
BIG PINEY      CLOUDY    40  27  59 N13       29.84R WCI  32
PINEDALE       MOCLDY    36  32  87 NW15      29.85R WCI  26
DUBOIS         LGT SNOW  32  30  93 CALM      29.84R
LANDER         FAIR      41  26  55 CALM      29.81S
RIVERTON       FAIR      41  29  62 N3        29.82R
CASPER         CLOUDY    29  25  85 N5        29.86R WCI  24
DOUGLAS        CLOUDY    30  25  81 NW12      29.85R WCI  20

$$
WYZ021-027>030-104>119-260300-
SOUTHERN WYOMING

CITY           SKY/WX    TMP DP  RH WIND       PRES   REMARKS
EVANSTON       CLOUDY    38  28  67 W13       29.91R WCI  30
KEMMERER       FLURRIES  34  32  93 W18G29    29.87R WCI  23
FORT BRIDGER   MOCLDY    38  33  81 W18       29.91R WCI  28
ROCK SPRINGS   FAIR      36  28  73 E3        29.85R
DIXON            N/A     40  28  63 N6        29.84R
RAWLINS        CLOUDY    32  24  72 E6        29.84R WCI  26
SARATOGA       MOCLDY    32  27  80 N6        29.84R WCI  26
LARAMIE        FAIR      29  21  72 MISG      29.77R
CHEYENNE       FAIR      29  22  75 N17G28    29.77R WCI  17
TORRINGTON     CLOUDY    32  28  85 N14       29.82R WCI  22
PINE BLUFFS    CLOUDY    32  28  86 N22       29.78R WCI  19

$$



USA.gov is the U.S. government's official web portal to all federal, state and local government web resources and services.